Dumas, TX

6:40 AM CDT on September 24, 2017 (GMT -0500)
Moore County

Weather History for KDUX - August, 2013

Change the Weather History Date:

Thursday, August 29, 2013

  Actual Average (KDHT) Record (KDHT)
Temperature  
Mean Temperature 82 °F -  
Max Temperature 95 °F 86 °F 99 °F (1990)
Min Temperature 69 °F 58 °F 43 °F (1988)
Cooling Degree Days 17    
Growing Degree Days 32 (Base 50)    
Moisture  
Dew Point 56 °F    
Average Humidity 44    
Maximum Humidity 60    
Minimum Humidity 25    
Precipitation  
Precipitation 0.00 in - - ()
Sea Level Pressure  
Sea Level Pressure 30.12 in    
Wind  
Wind Speed 13 mph (SSW)    
Max Wind Speed 20 mph    
Max Gust Speed 25 mph    
Visibility 10 miles    
Events      
Averages and records for this station are not official NWS values.
T = Trace of Precipitation, MM = Missing Value Source: NWS Daily Summary

Daily Weather History Graph

Daily Weather History Graph

Search for Another Location

Airport or City:

Trip Planner

Search our weather history database for the weather conditions in past years. The results will help you decide how hot, cold, wet, or windy it might be!

Date:

Astronomy

Aug. 29, 2013 Rise Set
Actual Time 7:17 AM CDT 8:19 PM CDT
Civil Twilight 6:51 AM CDT 8:45 PM CDT
Nautical Twilight 6:20 AM CDT 9:16 PM CDT
Astronomical Twilight 5:48 AM CDT 9:48 PM CDT
Moon 1:16 AM CDT (8/29) 3:43 PM CDT (8/29)
Length of Visible Light 13h 53m
Length of Day
13h 01m
Last Quarter, 38% of the Moon is Illuminated
Aug 29
Last Quarter
Sep 5
New
Sep 12
First Quarter
Sep 19
Full
Sep 26
Last Quarter

Hourly Weather History & Observations

Time (CDT) Temp. Heat Index Dew Point Humidity Pressure Visibility Wind Dir Wind Speed Gust Speed Precip Events Conditions
12:15 AM 76.3 °F - 56.3 °F 50% 30.14 in 10.0 mi South 12.7 mph - N/A   Clear
12:35 AM 75.7 °F - 56.1 °F 50% 30.15 in 10.0 mi South 11.5 mph - N/A   Clear
12:55 AM 75.4 °F - 55.8 °F 50% 30.15 in 10.0 mi South 13.8 mph - N/A   Scattered Clouds
1:15 AM 75.2 °F - 55.8 °F 51% 30.15 in 10.0 mi South 13.8 mph - N/A   Clear
1:35 AM 74.8 °F - 55.8 °F 51% 30.15 in 10.0 mi SSW 10.4 mph - N/A   Clear
1:55 AM 74.7 °F - 55.6 °F 51% 30.15 in 10.0 mi SSW 11.5 mph - N/A   Clear
2:15 AM 74.5 °F - 55.4 °F 51% 30.15 in 10.0 mi SSW 11.5 mph - N/A   Clear
2:35 AM 73.4 °F - 55.4 °F 53% 30.15 in 10.0 mi SSW 10.4 mph - N/A   Clear
2:55 AM 72.7 °F - 55.0 °F 54% 30.15 in 10.0 mi SSW 11.5 mph - N/A   Clear
3:15 AM 72.5 °F - 54.9 °F 54% 30.15 in 10.0 mi SSW 10.4 mph - N/A   Clear
3:35 AM 71.8 °F - 54.5 °F 54% 30.15 in 10.0 mi SSW 9.2 mph - N/A   Clear
3:55 AM 71.6 °F - 54.7 °F 55% 30.15 in 10.0 mi SSW 9.2 mph - N/A   Clear
4:15 AM 71.2 °F - 55.0 °F 56% 30.15 in 10.0 mi SSW 8.1 mph - N/A   Clear
4:35 AM 70.9 °F - 55.4 °F 58% 30.15 in 10.0 mi SW 9.2 mph - N/A   Clear
4:55 AM 70.7 °F - 55.6 °F 59% 30.14 in 10.0 mi SW 10.4 mph - N/A   Clear
5:15 AM 71.2 °F - 55.4 °F 57% 30.14 in 10.0 mi SW 13.8 mph - N/A   Clear
5:35 AM 71.4 °F - 54.9 °F 56% 30.14 in 10.0 mi SW 13.8 mph - N/A   Clear
5:55 AM 71.2 °F - 54.9 °F 56% 30.14 in 10.0 mi SW 12.7 mph - N/A   Clear
6:15 AM 70.7 °F - 54.9 °F 57% 30.14 in 10.0 mi SW 10.4 mph - N/A   Clear
6:35 AM 70.0 °F - 54.9 °F 59% 30.14 in 10.0 mi SW 11.5 mph - N/A   Clear
6:55 AM 70.2 °F - 55.0 °F 59% 30.14 in 10.0 mi SW 13.8 mph - N/A   Clear
7:15 AM 70.0 °F - 55.4 °F 60% 30.15 in 10.0 mi SSW 13.8 mph - N/A   Clear
7:35 AM 69.8 °F - 55.4 °F 60% 30.15 in 10.0 mi SSW 13.8 mph - N/A   Clear
7:55 AM 70.2 °F - 55.8 °F 60% 30.15 in 10.0 mi SSW 12.7 mph - N/A   Clear
8:15 AM 72.0 °F - 56.3 °F 58% 30.15 in 10.0 mi SSW 13.8 mph - N/A   Clear
8:35 AM 73.6 °F - 56.5 °F 55% 30.15 in 10.0 mi SW 15.0 mph - N/A   Clear
8:55 AM 75.4 °F - 57.2 °F 53% 30.15 in 10.0 mi SSW 16.1 mph - N/A   Clear
9:15 AM 76.8 °F - 57.2 °F 51% 30.16 in 10.0 mi SSW 15.0 mph - N/A   Clear
9:35 AM 77.9 °F - 57.7 °F 50% 30.16 in 10.0 mi SW 17.3 mph 21.9 mph N/A   Clear
9:55 AM 78.8 °F - 58.1 °F 49% 30.16 in 10.0 mi SW 16.1 mph - N/A   Clear
10:15 AM 79.9 °F - 58.5 °F 48% 30.17 in 10.0 mi SW 19.6 mph - N/A   Clear
10:35 AM 81.0 °F 81.2 °F 58.5 °F 46% 30.17 in 10.0 mi SW 18.4 mph 25.3 mph N/A   Clear
10:55 AM 83.1 °F 83.0 °F 59.0 °F 44% 30.17 in 10.0 mi SSW 17.3 mph 24.2 mph N/A   Clear
11:15 AM 84.0 °F 83.8 °F 59.4 °F 43% 30.17 in 10.0 mi SSW 17.3 mph 21.9 mph N/A   Clear
11:35 AM 85.3 °F 84.8 °F 59.2 °F 41% 30.17 in 10.0 mi SW 15.0 mph 23.0 mph N/A   Clear
12:15 PM 86.7 °F 86.1 °F 59.2 °F 39% 30.16 in 10.0 mi SSW 11.5 mph 18.4 mph N/A   Clear
12:55 PM 89.4 °F 88.4 °F 58.5 °F 35% 30.15 in 10.0 mi SSW 15.0 mph 18.4 mph N/A   Clear
1:15 PM 90.3 °F 89.3 °F 58.3 °F 34% 30.15 in 10.0 mi SW 15.0 mph 19.6 mph N/A   Clear
1:35 PM 90.3 °F 89.0 °F 57.4 °F 33% 30.14 in 10.0 mi SSW 16.1 mph 20.7 mph N/A   Clear
1:55 PM 91.4 °F 89.9 °F 57.0 °F 31% 30.12 in 10.0 mi South 13.8 mph 20.7 mph N/A   Clear
2:15 PM 92.1 °F 90.5 °F 56.7 °F 30% 30.12 in 10.0 mi SSW 18.4 mph 21.9 mph N/A   Clear
2:35 PM 92.7 °F 90.9 °F 56.1 °F 29% 30.11 in 10.0 mi SSW 12.7 mph 20.7 mph N/A   Clear
2:55 PM 93.4 °F 91.5 °F 55.6 °F 28% 30.11 in 10.0 mi South 16.1 mph 24.2 mph N/A   Clear
3:15 PM 93.9 °F 91.7 °F 54.5 °F 26% 30.10 in 10.0 mi SW 11.5 mph 24.2 mph N/A   Clear
3:35 PM 94.1 °F 91.9 °F 54.1 °F 26% 30.09 in 10.0 mi South 12.7 mph 21.9 mph N/A   Clear
3:55 PM 94.3 °F 92.4 °F 55.6 °F 27% 30.08 in 10.0 mi South 13.8 mph 20.7 mph N/A   Clear
4:15 PM 94.3 °F 91.8 °F 53.6 °F 25% 30.08 in 10.0 mi SSW 8.1 mph 18.4 mph N/A   Clear
4:35 PM 95.0 °F 93.7 °F 57.2 °F 28% 30.07 in 10.0 mi South 18.4 mph 24.2 mph N/A   Clear
4:55 PM 94.8 °F 93.1 °F 55.8 °F 27% 30.07 in 10.0 mi South 13.8 mph 20.7 mph N/A   Clear
5:15 PM 94.8 °F 93.1 °F 56.1 °F 27% 30.07 in 10.0 mi SSW 9.2 mph 18.4 mph N/A   Clear
5:35 PM 94.1 °F 92.8 °F 56.8 °F 29% 30.06 in 10.0 mi SW 13.8 mph 23.0 mph N/A   Clear
5:55 PM 94.3 °F 93.0 °F 57.4 °F 29% 30.06 in 10.0 mi South 17.3 mph 20.7 mph N/A   Clear
6:15 PM 94.1 °F 92.8 °F 57.2 °F 29% 30.06 in 10.0 mi South 12.7 mph - N/A   Clear
6:35 PM 93.6 °F 92.1 °F 56.5 °F 29% 30.06 in 10.0 mi South 15.0 mph - N/A   Clear
6:55 PM 92.7 °F 91.2 °F 57.4 °F 30% 30.06 in 10.0 mi South 17.3 mph 21.9 mph N/A   Clear
7:15 PM 91.8 °F 90.9 °F 58.5 °F 33% 30.06 in 10.0 mi South 11.5 mph - N/A   Clear
7:35 PM 90.9 °F 89.7 °F 57.9 °F 33% 30.06 in 10.0 mi South 13.8 mph - N/A   Clear
7:55 PM 89.6 °F 88.1 °F 56.8 °F 33% 30.06 in 10.0 mi South 11.5 mph - N/A   Clear
8:15 PM 87.1 °F 85.9 °F 57.0 °F 36% 30.07 in 10.0 mi SSE 11.5 mph - N/A   Clear
8:35 PM 85.6 °F 84.7 °F 57.2 °F 38% 30.07 in 10.0 mi South 10.4 mph - N/A   Clear
8:55 PM 83.3 °F 82.8 °F 57.2 °F 41% 30.08 in 10.0 mi South 9.2 mph - N/A   Clear
9:15 PM 82.6 °F 82.2 °F 57.2 °F 42% 30.08 in 10.0 mi South 10.4 mph - N/A   Clear
9:35 PM 80.6 °F 80.8 °F 57.2 °F 45% 30.09 in 10.0 mi South 9.2 mph - N/A   Clear
9:55 PM 80.2 °F 80.5 °F 57.4 °F 45% 30.10 in 10.0 mi South 12.7 mph - N/A   Clear
10:15 PM 80.8 °F 81.0 °F 57.4 °F 45% 30.10 in 10.0 mi South 11.5 mph - N/A   Clear
10:35 PM 80.1 °F 80.4 °F 56.7 °F 45% 30.11 in 10.0 mi South 11.5 mph - N/A   Clear
10:55 PM 80.6 °F 80.6 °F 55.9 °F 43% 30.11 in 10.0 mi South 13.8 mph - N/A   Clear
11:15 PM 78.8 °F - 55.4 °F 44% 30.11 in 10.0 mi South 8.1 mph - N/A   Clear
11:35 PM 77.9 °F - 54.5 °F 44% 30.11 in 10.0 mi South 10.4 mph - N/A   Clear
11:55 PM 76.1 °F - 54.0 °F 46% 30.11 in 10.0 mi SSE 9.2 mph - N/A   Clear